Find Kosmos-972

NORAD ID: 10539 Int'l Des: 1977-123 Owner: YUZH Country: SU operational
LEO

リアルタイム位置

3D地球を読み込み中...

Kosmos-972について

説明を読み込み中...

次回通過

Passes for default location (London). Set your location on the main map for personalized predictions.

高度履歴

Loading altitude history...

軌道要素

1 10539U 77123A 26120.26626111 .00000063 00000-0 44121-4 0 9999
2 10539 75.8345 178.2187 0302368 303.1221 54.1227 13.89159130449390
Epoch: Apr 30, 2026 • Age: 7 hours

現在のステータス

高度 824.7 km
速度 7.50 km/s
衛星直下点 4.24°N, 120.49°E
打ち上げ日 Dec 27, 1977
運用期間 48.3 years
タイプ other

技術仕様

分類 Payload
質量 1700.00 kg
乾燥質量 1700.00 kg
総質量 1700.00 kg
長さ 3.20 m
直径 1.30 m
スパン 3.20 m
形状 Cyl
製造者 YUZH
バスタイプ GVM
フェーズステータス In Orbit
所有者/国 YUZH/SU

Most Searched